sat.trackr.live / text

‹ back to catalog

STARLINK-36942

NORAD 68030 · 2026-040R

PAYLOAD ACTIVE UNKNOWN

§ Identity

Operator
Country
US
Launch date
2026-03-01
Launch site
AFWTR
Launch vehicle
Mass (kg)
RCS (m²)

Purposes: comms

External: N2YO · Heavens-Above · Gunter

§ Orbital elements

Epoch: 2026-05-24T20:05:34.753920Z

Period
93.91 min
Inclination
97.2840°
Eccentricity
0.0001707
Mean motion
15.33449135 rev/d
Perigee alt
464.4 km
Apogee alt
466.7 km
Semi-major
6,843.7 km
B*
5.3291e-4
RAAN
93.8717°
Arg perigee
97.4208°
Mean anomaly
262.7228°
Rev number
1,313

§ Raw data

STARLINK-369421 68030U 26040R   26144.83720780  .00017171  00000+0  53291-3 0  99902 68030  97.2840  93.8717 0001707  97.4208 262.7228 15.33449135 13134

JSON: /api/v1/satellites/68030 · /tle

For live sub-satellite position, see the globe view (requires WebGL).

§ Visibility from observer

Set your observer location to see the next 7 days of passes ≥ 10°. The values pass through the URL so the page stays shareable.

No JS? Fill the form by hand. The geolocation button needs JavaScript.